"TOA5","AWS1","CR1000","7964","CR1000.Std.14","CPU:AWS1_114.CR1","64363","TBL110"
"TIMESTAMP","RECORD","Wind_spd_WVc(1)","Wind_spd_WVc(2)","Air_Temp_Avg","Humidity_Avg","SW_upper_Wm2_Avg","Rain_Tot","Press_Avg","Issui_Tot","Depth_cm","SR50A_Raw","Quality","Ground_Temp_Avg(1)","Ground_Temp_Avg(2)","SW_lower_Wm2_Avg","Albedo_Avg","SWC_per(1)","SWC_per(2)","Period(1)","Period(2)"
"TS","RN","","","","","","","","","","","","","","","","","","",""
"","","WVc","WVc","Avg","Avg","Avg","Tot","Avg","Tot","Smp","Smp","Smp","Avg","Avg","Avg","Avg","Smp","Smp","Smp","Smp"
"2016-10-02 00:00:00",255661,0.278,35.09,16.81,97.4,0.2161658,0,871.4653,0,-3.669,3.122,209,17.8,17.67,0.01136863,0.024,50.72,58.09,33.47,35.24
"2016-10-02 00:10:00",255662,0.072,53.21,16.75,99.5,0,0,871.4905,0,-2.876,3.115,228,17.8,17.66,0,0,50.72,58.09,33.47,35.24
"2016-10-02 00:20:00",255663,0.01,58.03,16.69,100,0,0,871.4674,0,-3.549,3.122,204,17.8,17.65,0,0,50.72,58.03,33.47,35.22
"2016-10-02 00:30:00",255664,0.099,68.03,16.6,100,0,0,871.5032,0,-3.579,3.123,200,17.8,17.66,0,0,50.72,58.03,33.47,35.22
"2016-10-02 00:40:00",255665,0.118,29.02,16.6,100,0,0,871.5116,0,-3.185,3.118,211,17.8,17.64,0.1477922,0,50.66,57.97,33.46,35.21
"2016-10-02 00:50:00",255666,0.174,30.83,16.74,100,0,0,871.619,0,-3.542,3.121,215,17.8,17.64,0.3486381,0,50.66,58.03,33.46,35.22
"2016-10-02 01:00:00",255667,0.174,38.45,16.84,100,0,0,871.7032,0,-3.233,3.118,217,17.79,17.64,0.3979022,0,50.66,57.97,33.46,35.21
"2016-10-02 01:10:00",255668,0.059,343.2,16.72,100,0,0,871.7032,0,-3.699,3.123,212,17.79,17.63,0.07579089,0,50.72,57.97,33.47,35.21
"2016-10-02 01:20:00",255669,0.001,294,16.65,100,0,0,871.7159,0,-38.78,3.463,299,17.77,17.63,0.003789545,0,50.66,57.97,33.46,35.21
"2016-10-02 01:30:00",255670,0,0,16.75,100,0,0,871.7286,0,-1.148,3.098,261,17.75,17.63,0.1212654,0,50.66,57.91,33.46,35.2
"2016-10-02 01:40:00",255671,0.052,53.45,16.73,100,0,0,871.7032,0,-1.077,3.098,296,17.75,17.63,0.1553713,0,50.66,57.91,33.46,35.2
"2016-10-02 01:50:00",255672,0.013,21.25,16.62,100,0,0,871.7054,0,-1.077,3.098,315,17.76,17.63,0.1061072,0,50.61,57.91,33.45,35.2
"2016-10-02 02:00:00",255673,0,0,16.68,100,0,0,871.7623,0,-0.253,3.09,350,17.78,17.65,0.06063271,0,50.61,57.86,33.45,35.18
"2016-10-02 02:10:00",255674,0.016,45.77,16.73,100,0,0,871.796,0,0.215,3.085,394,17.78,17.68,0.2235831,0,50.61,57.86,33.45,35.18
"2016-10-02 02:20:00",255675,0,0,16.74,100,0,0,871.7475,0,0.58,3.081,403,17.77,17.66,0.1515818,0,50.61,57.86,33.45,35.18
"2016-10-02 02:30:00",255676,0,0,16.71,100,0,0,871.7075,0,0.215,3.085,369,17.75,17.67,0.0682118,0,50.66,57.86,33.46,35.18
"2016-10-02 02:40:00",255677,0,0,16.69,100,0,0,871.7032,0,-0.713,3.094,329,17.76,17.66,0,0,50.61,57.86,33.45,35.18
"2016-10-02 02:50:00",255678,0,0,16.71,100,0,0,871.7032,0,0.215,3.085,348,17.74,17.68,0.125055,0,50.61,57.86,33.45,35.18
"2016-10-02 03:00:00",255679,0,0,16.76,100,0,0,871.6696,0,0.944,3.077,392,17.71,17.71,0.257689,0,50.61,57.8,33.45,35.17
"2016-10-02 03:10:00",255680,0,0,16.89,100,0,0,871.6864,0,0.738,3.079,371,17.71,17.71,0.341059,0,50.61,57.8,33.45,35.17
"2016-10-02 03:20:00",255681,0,0,16.91,100,0,0,871.7032,0,0.691,3.079,374,17.71,17.71,0.2273727,0,50.61,57.8,33.45,35.17
"2016-10-02 03:30:00",255682,0,0,16.8,100,0,0,871.697,0,1.094,3.076,388,17.71,17.7,0.1705295,0,50.61,57.8,33.45,35.17
"2016-10-02 03:40:00",255683,0,0,16.78,100,0,0,871.7032,0,1.094,3.076,390,17.71,17.71,0.0341059,0,50.55,57.8,33.43,35.17
"2016-10-02 03:50:00",255684,0,0,16.81,100,0,0,871.7032,0,1.403,3.073,409,17.71,17.71,0.1136863,0,50.61,57.74,33.45,35.16
"2016-10-02 04:00:00",255685,0,0,16.9,100,0,0,871.7032,0,1.309,3.073,411,17.71,17.7,0.08336998,0,50.61,57.74,33.45,35.16
"2016-10-02 04:10:00",255686,0,0,16.87,100,0,0,871.7032,0,1.094,3.076,387,17.71,17.7,0.04547453,0,50.55,57.8,33.43,35.17
"2016-10-02 04:20:00",255687,0,0,16.84,100,0,0,871.7117,0,1.403,3.073,411,17.71,17.71,0.1288445,0,50.55,57.74,33.43,35.16
"2016-10-02 04:30:00",255688,0,0,16.77,100,0,0,871.7875,0,-0.3,3.09,271,17.71,17.71,0,0,50.55,57.74,33.43,35.16
"2016-10-02 04:40:00",255689,0,0,16.79,100,0,0,871.8149,0,0.073,3.085,310,17.71,17.71,0.1515818,0,50.55,57.74,33.43,35.16
"2016-10-02 04:50:00",255690,0,0,16.76,100,0,0,871.9076,0,0.064,3.086,313,17.71,17.71,0,0,50.55,57.74,33.43,35.16
"2016-10-02 05:00:00",255691,0,0,16.78,100,0,0,871.9496,0,0.579,3.081,371,17.71,17.71,0.07579089,0,50.55,57.74,33.43,35.16
"2016-10-02 05:10:00",255692,0,0,16.78,100,0,0,871.9561,0,-1.687,3.103,253,17.71,17.71,0.003789545,0,50.55,57.74,33.43,35.16
"2016-10-02 05:20:00",255693,0,0,16.76,100,0,0,871.9561,0,-1.481,3.101,238,17.7,17.71,0.06063271,0,50.55,57.74,33.43,35.16
"2016-10-02 05:30:00",255694,0,0,16.78,100,0,0,871.9645,0,-1.275,3.099,234,17.7,17.71,0.03031636,0,50.55,57.68,33.43,35.14
"2016-10-02 05:40:00",255695,0,0,16.78,100,0,0,872.0087,0,-0.966,3.096,244,17.7,17.71,0.208425,0,50.5,57.68,33.42,35.14
"2016-10-02 05:50:00",255696,0,0,16.8,100,0.5581008,0,872.0929,0,-0.863,3.095,257,17.68,17.71,0.2273727,0.532,50.5,57.68,33.42,35.14
"2016-10-02 06:00:00",255697,0,0,16.78,100,1.878677,0,872.1561,0,0.064,3.086,325,17.69,17.71,0.2728472,0.159,50.5,57.68,33.42,35.14
"2016-10-02 06:10:00",255698,0,0,16.78,100,4.189686,0,872.2088,0,-1.148,3.098,284,17.67,17.71,0.6555912,0.156,50.5,57.68,33.42,35.14
"2016-10-02 06:20:00",255699,0,0,16.82,100,9.699948,0,872.2088,0,-1.473,3.1,300,17.64,17.71,1.462764,0.154,50.5,57.62,33.42,35.13
"2016-10-02 06:30:00",255700,0,0,16.79,100,19.42741,0,872.2088,0,-0.372,3.09,336,17.66,17.71,2.626154,0.135,50.5,57.62,33.42,35.13
"2016-10-02 06:40:00",255701,0,0,16.86,100,15.20628,0,872.2151,0,-2.401,3.109,232,17.63,17.71,1.928878,0.127,50.5,57.62,33.42,35.13
"2016-10-02 06:50:00",255702,0,0,16.93,100,32.12617,0,872.213,0,-2.195,3.107,231,17.63,17.71,4.024496,0.125,50.5,57.62,33.42,35.13
"2016-10-02 07:00:00",255703,0,0,16.99,100,54.61134,0,872.2404,0,-2.45,3.109,217,17.64,17.71,7.018236,0.128,50.5,57.62,33.42,35.13
"2016-10-02 07:10:00",255704,0,0,17.14,100,57.84203,0,872.4109,0,-0.896,3.093,277,17.66,17.71,7.431297,0.128,50.5,57.56,33.42,35.12
"2016-10-02 07:20:00",255705,0,0,17.3,100,61.67013,0,872.3225,0,-2.855,3.112,205,17.67,17.71,7.802672,0.126,50.5,57.56,33.42,35.12
"2016-10-02 07:30:00",255706,0,0,17.29,100,40.08892,0,872.2256,0,-1.308,3.097,228,17.66,17.71,4.854406,0.121,50.5,57.56,33.42,35.12
"2016-10-02 07:40:00",255707,0,0,17.18,100,34.52757,0,872.312,0,-1.157,3.096,229,17.66,17.71,4.088919,0.119,50.44,57.56,33.41,35.12
"2016-10-02 07:50:00",255708,0,0,17.06,100,35.53765,0,872.451,0,-0.388,3.089,283,17.68,17.71,4.32387,0.12,50.44,57.56,33.41,35.12
"2016-10-02 08:00:00",255709,0,0,17.11,100,65.98952,0,872.4615,0,-0.594,3.091,258,17.69,17.71,8.435526,0.127,50.5,57.56,33.42,35.12
"2016-10-02 08:10:00",255710,0,0,17.13,100,88.13669,0,872.4615,0,-1.364,3.098,241,17.7,17.71,11.68317,0.133,50.5,57.56,33.42,35.12
"2016-10-02 08:20:00",255711,0,0,17.28,100,55.57426,0,872.4615,0,-1.562,3.099,230,17.71,17.71,7.230451,0.13,50.5,57.56,33.42,35.12
"2016-10-02 08:30:00",255712,0,0,17.35,98.2,70.03771,0,872.4615,0,-2.538,3.108,201,17.71,17.71,9.257857,0.132,50.44,57.51,33.41,35.1
"2016-10-02 08:40:00",255713,0,0,17.27,97.7,61.25352,0,872.4615,0,-2.133,3.105,205,17.71,17.71,7.882253,0.129,50.44,57.51,33.41,35.1
"2016-10-02 08:50:00",255714,0,0,17.24,99.8,87.84191,0,872.4278,0,-2.022,3.103,198,17.71,17.71,11.92949,0.135,50.44,57.51,33.41,35.1
"2016-10-02 09:00:00",255715,0,0,17.58,97.8,120.8367,0,872.2972,0,-2.166,3.103,202,17.7,17.71,16.41631,0.136,50.44,57.51,33.41,35.1
"2016-10-02 09:10:00",255716,0,0,17.63,98.4,173.8287,0,872.2088,0,-2.325,3.105,203,17.66,17.7,24.24551,0.139,50.44,57.51,33.41,35.1
"2016-10-02 09:20:00",255717,0,0,18.12,96.8,296.265,0,872.2109,0,-1.404,3.091,197,17.72,17.65,43.10228,0.145,50.39,57.51,33.39,35.1
"2016-10-02 09:30:00",255718,0,0,18.21,92.9,335.057,0,872.2088,0,-2.405,3.103,192,17.79,17.69,47.10783,0.14,50.44,57.51,33.41,35.1
"2016-10-02 09:40:00",255719,0,0,18.45,91.2,328.3597,0,872.2088,0,-2.104,3.095,201,17.8,17.69,41.12035,0.127,50.44,57.51,33.41,35.1
"2016-10-02 09:50:00",255720,0,0,19.02,87.2,207.1183,0,872.2047,0,-1.999,3.094,205,17.75,17.69,32.97283,0.156,50.44,57.45,33.41,35.09
"2016-10-02 10:00:00",255721,0.131,38.25,19.51,84.3,313.1299,0,872.2038,0,-1.393,3.084,203,17.72,17.7,54.86502,0.18,50.39,57.51,33.39,35.1
"2016-10-02 10:10:00",255722,0.568,59.55,19.95,79.73,315.9872,0,872.1995,0,-2.118,3.091,192,17.79,17.73,59.57922,0.195,50.39,57.45,33.39,35.09
"2016-10-02 10:20:00",255723,0.636,79.73,19.9,80.9,247.8911,0,872.0948,0,-1.375,3.082,250,17.84,17.73,48.54028,0.193,50.39,57.45,33.39,35.09
"2016-10-02 10:30:00",255724,0.44,73.09,20.36,77.87,582.7476,0,871.9221,0,-3.584,3.104,197,17.81,17.74,48.77143,0.088,50.39,57.39,33.39,35.07
"2016-10-02 10:40:00",255725,0.663,130.6,20.44,75.87,763.301,0,871.864,0,-1.858,3.083,204,17.8,17.68,59.31395,0.077,50.39,57.45,33.39,35.09
"2016-10-02 10:50:00",255726,0.446,127,21.02,72.83,853.2316,0,871.69,0,-2.437,3.087,203,17.8,17.66,63.92887,0.075,50.39,57.45,33.39,35.09
"2016-10-02 11:00:00",255727,0.519,103.8,21.29,72.15,682.8766,0,871.6273,0,-1.753,3.08,209,17.89,17.65,64.46255,0.098,50.33,57.45,33.38,35.09
"2016-10-02 11:10:00",255728,0.174,276.9,20.83,75.44,407.6897,0,871.3987,0,-1.899,3.086,208,17.86,17.63,38.47689,0.094,50.39,57.39,33.39,35.07
"2016-10-02 11:20:00",255729,0.233,330.5,20.09,78,239.5744,0,871.3699,0,-1.821,3.088,208,17.88,17.61,28.46518,0.118,50.33,57.39,33.38,35.07
"2016-10-02 11:30:00",255730,0.057,301.7,19.79,80,170.2194,0,871.3695,0,-1.665,3.086,206,17.99,17.61,19.85236,0.117,50.33,57.39,33.38,35.07
"2016-10-02 11:40:00",255731,0.079,289.3,19.72,81.8,134.9312,0,871.3351,0,-2.077,3.092,208,17.97,17.62,15.05169,0.111,50.33,57.39,33.38,35.07
"2016-10-02 11:50:00",255732,0.041,284.6,19.55,83.3,124.1252,0,871.3691,0,-1.744,3.089,216,17.97,17.62,14.83214,0.119,50.33,57.39,33.38,35.07
"2016-10-02 12:00:00",255733,0.161,348.6,19.53,84.4,163.0081,0,871.4166,0,-1.505,3.086,203,18.08,17.63,21.45633,0.132,50.28,57.39,33.37,35.07
"2016-10-02 12:10:00",255734,0.143,320.6,19.68,84.6,198.1727,0,871.4129,0,-1.895,3.09,198,18.09,17.63,26.01898,0.131,50.28,57.33,33.37,35.06
"2016-10-02 12:20:00",255735,0.17,168.3,20.64,80.8,820.7925,0,871.4001,0,-2.552,3.089,195,18.09,17.7,133.1948,0.161,50.39,57.33,33.39,35.06
"2016-10-02 12:30:00",255736,0.309,183.9,21.69,76.08,891.7028,0,871.2526,0,-2.525,3.086,205,18.15,17.72,141.1187,0.156,50.28,57.33,33.37,35.06
"2016-10-02 12:40:00",255737,0.715,138.8,21.09,75.82,554.1726,0,871.1257,0,-2.662,3.091,181,18.11,17.71,81.47498,0.138,50.22,57.33,33.35,35.06
"2016-10-02 12:50:00",255738,0.398,132.5,20.93,76.9,348.0524,0,870.9714,0,-2.852,3.092,195,18.09,17.7,49.41377,0.125,50.22,57.33,33.35,35.06
"2016-10-02 13:00:00",255739,0.38,90.8,21.15,76.58,393.5632,0,870.8645,0,-2.456,3.088,209,18.13,17.69,57.73234,0.142,50.22,57.27,33.35,35.05
"2016-10-02 13:10:00",255740,0.291,104.1,20.86,75.38,165.0891,0,870.8759,0,-2.581,3.091,193,18.18,17.68,20.78004,0.126,50.22,57.27,33.35,35.05
"2016-10-02 13:20:00",255741,0.381,90.6,20.68,77.4,327.6446,0,870.8816,0,-2.61,3.089,195,18.18,17.71,48.48317,0.144,50.22,57.27,33.35,35.05
"2016-10-02 13:30:00",255742,0.365,2.288,20.89,78.74,300.4117,0,870.8682,0,-1.583,3.082,219,18.22,17.69,40.48489,0.135,50.17,57.33,33.34,35.06
"2016-10-02 13:40:00",255743,0.302,15.19,20.9,77.69,416.366,0,870.87,0,-2.374,3.088,203,18.31,17.7,53.94252,0.128,50.17,57.22,33.34,35.03
"2016-10-02 13:50:00",255744,0.093,30.71,20.85,77.59,204.6008,0,870.824,0,-1.928,3.083,200,18.3,17.71,26.01496,0.127,50.17,57.22,33.34,35.03
"2016-10-02 14:00:00",255745,0.23,157.4,20.79,78.84,156.8401,0,870.6275,0,-2.246,3.087,213,18.4,17.71,20.22455,0.129,50.22,57.27,33.35,35.05
"2016-10-02 14:10:00",255746,0.373,71.58,20.69,78.75,125.7126,0,870.6386,0,-2.233,3.088,241,18.39,17.71,16.34032,0.13,50.17,57.27,33.34,35.05
"2016-10-02 14:20:00",255747,0.121,31.16,20.4,81,148.6073,0,870.6414,0,-3.176,3.098,235,18.4,17.71,20.02384,0.135,50.17,57.27,33.34,35.05
"2016-10-02 14:30:00",255748,0,0,20.46,81.4,146.5876,0,870.6478,0,-3.535,3.101,191,18.5,17.71,19.62601,0.132,50.17,57.22,33.34,35.03
"2016-10-02 14:40:00",255749,0.138,25.14,20.68,78.52,220.9566,0,870.6967,0,-2.593,3.091,200,18.47,17.72,30.57022,0.138,50.17,57.22,33.34,35.03
"2016-10-02 14:50:00",255750,0.092,104,20.73,77.03,168.11,0,870.7871,0,-3.239,3.097,196,18.56,17.74,21.03574,0.125,50.11,57.22,33.33,35.03
"2016-10-02 15:00:00",255751,0.029,185.5,20.6,79.73,110.5117,0,870.6798,0,-3.487,3.101,209,18.56,17.75,11.07304,0.099,50.17,57.22,33.34,35.03
"2016-10-02 15:10:00",255752,0.094,80.7,20.53,79.72,148.3092,0,870.6852,0,-3.479,3.1,218,18.58,17.77,19.70561,0.133,50.11,57.22,33.33,35.03
"2016-10-02 15:20:00",255753,0.317,76.89,20.78,76.7,174.3434,0,870.6899,0,-2.575,3.089,251,18.68,17.77,27.36806,0.157,50.11,57.22,33.33,35.03
"2016-10-02 15:30:00",255754,0.256,308.2,21,76.75,149.0363,0,870.7206,0,-2.664,3.091,251,18.67,17.8,21.69891,0.144,50.11,57.22,33.33,35.03
"2016-10-02 15:40:00",255755,0.241,299,20.72,77.89,121.6423,0,870.7261,0,-2.465,3.09,264,18.67,17.82,16.53756,0.136,50.11,57.22,33.33,35.03
"2016-10-02 15:50:00",255756,0.23,316.3,20.6,79.29,91.65028,0,870.7961,0,-3.765,3.103,221,18.74,17.83,11.69073,0.127,50.06,57.16,33.31,35.02
"2016-10-02 16:00:00",255757,0.065,291.5,20.37,82.7,48.2403,0,870.9235,0,-3.504,3.103,219,18.8,17.84,4.392078,0.085,50.06,57.16,33.31,35.02
"2016-10-02 16:10:00",255758,0.119,25.14,19.94,84.3,26.52155,0,870.9408,0,-1.807,3.088,217,18.76,17.86,0.7958036,0.026,50.06,57.16,33.31,35.02
"2016-10-02 16:20:00",255759,0.026,39.06,19.76,85.3,87.95974,0,871.0335,0,-1.863,3.089,250,18.77,17.85,11.99769,0.132,50.06,57.16,33.31,35.02
"2016-10-02 16:30:00",255760,0.098,31.37,19.86,84.8,71.22852,0,870.9894,0,-2.037,3.09,236,18.83,17.82,9.32227,0.128,50.06,57.16,33.31,35.02
"2016-10-02 16:40:00",255761,0.032,288,19.78,85,40.69808,0,871.1068,0,-1.505,3.086,226,18.9,17.8,4.475448,0.108,50.06,57.1,33.31,35.01
"2016-10-02 16:50:00",255762,0.01,310.9,19.54,87.7,43.96022,0,871.2377,0,-1.513,3.087,216,18.93,17.8,5.434202,0.123,50.01,57.1,33.3,35.01
"2016-10-02 17:00:00",255763,0.029,282.4,19.27,87.9,30.1099,0,871.3915,0,-1.531,3.089,217,18.92,17.8,3.429535,0.112,50.01,57.1,33.3,35.01
"2016-10-02 17:10:00",255764,0,0,19.12,88.5,14.63638,0,871.4505,0,-1.14,3.085,232,18.9,17.8,1.064861,0.07,50.01,57.16,33.3,35.02
"2016-10-02 17:20:00",255765,0.028,144.2,19.06,88.9,7.432166,0,871.4505,0,-1.022,3.085,223,18.89,17.81,0.1970561,0.022,50.01,57.1,33.3,35.01
"2016-10-02 17:30:00",255766,0.148,147.5,18.87,91.1,2.798362,0,871.4505,0,-0.871,3.084,222,18.88,17.85,0,0,49.95,57.1,33.28,35.01
"2016-10-02 17:40:00",255767,0.338,127.9,18.79,92.7,0.4008889,0,871.5917,0,-0.879,3.085,224,18.9,17.88,0,0,49.95,57.1,33.28,35.01
"2016-10-02 17:50:00",255768,0.217,74.71,18.71,93.3,0,0,871.8381,0,-1.077,3.086,206,18.89,17.89,0,0,49.95,57.1,33.28,35.01
"2016-10-02 18:00:00",255769,0.028,23.56,18.78,92.6,0,0,871.9561,0,-1.086,3.087,206,18.88,17.89,0,0,50.01,57.1,33.3,35.01
"2016-10-02 18:10:00",255770,0.16,112.8,18.62,93.9,0,0,871.9561,0,-0.991,3.087,206,18.89,17.94,0,0,49.95,57.1,33.28,35.01
"2016-10-02 18:20:00",255771,0.313,124.2,18.51,95.9,0,0,871.9561,0,-0.84,3.086,224,18.9,17.97,0,0,49.95,57.1,33.28,35.01
"2016-10-02 18:30:00",255772,0.164,143.7,18.48,96.2,0,0,871.9561,0,-1.301,3.09,208,18.92,17.96,0,0,49.95,57.04,33.28,34.99
"2016-10-02 18:40:00",255773,0.029,44,18.58,93.6,0,0,871.9561,0,-0.983,3.086,216,18.93,17.94,0.1477921,0,49.95,57.1,33.28,35.01
"2016-10-02 18:50:00",255774,0.02,140.5,18.67,90.7,0,0,872.1393,0,-1.094,3.088,206,18.93,17.91,0.2046352,0,49.95,57.04,33.28,34.99
"2016-10-02 19:00:00",255775,0.366,135.8,18.38,94.8,0,0,872.2088,0,-1.102,3.089,224,18.93,17.91,0,0,49.95,57.04,33.28,34.99
"2016-10-02 19:10:00",255776,0.627,132.9,18.19,97,0,0,872.2404,0,-0.998,3.088,222,18.92,17.96,0.02652679,0,49.9,57.04,33.27,34.99
"2016-10-02 19:20:00",255777,0.511,141.2,18.24,94.6,0,0,872.2845,0,-1.205,3.09,211,18.93,18.01,0.04547449,0,49.9,57.04,33.27,34.99
"2016-10-02 19:30:00",255778,0.374,131.7,18.24,94,0,0,872.3372,0,-1.111,3.09,206,18.93,18.04,0.02273725,0,49.9,57.04,33.27,34.99
"2016-10-02 19:40:00",255779,0.411,62.24,18.17,93.6,0,0,872.213,0,-1.087,3.09,213,18.92,18.06,0.1326339,0,49.9,57.04,33.27,34.99
"2016-10-02 19:50:00",255780,0,0,18.21,93.8,0,0,872.2509,0,-1.158,3.09,207,18.91,18.06,0.1326339,0,49.95,56.98,33.28,34.98
"2016-10-02 20:00:00",255781,0,0,18.22,93.4,0,0,872.2361,0,-0.65,3.086,220,18.9,18.06,0.1174758,0,49.9,56.98,33.27,34.98
"2016-10-02 20:10:00",255782,0.021,358.9,18.1,95.9,0,0,872.352,0,-1.27,3.092,214,18.85,18.05,0.07200127,0,49.9,56.98,33.27,34.98
"2016-10-02 20:20:00",255783,0.209,5.89,18.11,95.1,0,0,872.2972,0,-1.317,3.092,209,18.83,18.02,0.2273725,0,49.9,56.98,33.27,34.98
"2016-10-02 20:30:00",255784,0.01,29.11,18.16,95.4,0,0,872.2361,0,-1.007,3.089,221,18.84,17.99,0.1061071,0,49.9,56.98,33.27,34.98
"2016-10-02 20:40:00",255785,0.158,136.8,18.01,96.6,0,0,872.2256,0,-0.976,3.091,223,18.84,18.02,0,0,49.9,56.98,33.27,34.98
"2016-10-02 20:50:00",255786,0.169,113.4,17.78,100,0,0,872.2404,0,-0.92,3.09,222,18.84,18.05,0,0,49.84,56.98,33.26,34.98
"2016-10-02 21:00:00",255787,0.082,101.4,17.8,100,0,0,872.1793,0,-1.285,3.094,225,18.84,18.06,0,0,49.9,56.98,33.27,34.98
"2016-10-02 21:10:00",255788,0.069,102.3,17.74,100,0,0,872.0571,0,-1.538,3.096,234,18.82,18.06,0,0,49.79,56.98,33.24,34.98
"2016-10-02 21:20:00",255789,0.168,322.9,17.7,100,0,0,872.1645,0,-1.547,3.097,230,18.76,18.06,0.02273725,0,49.84,56.98,33.26,34.98
"2016-10-02 21:30:00",255790,0.028,49.86,17.48,100,0,0,872.1287,0,-1.713,3.1,238,18.75,18.07,0.0189477,0,49.84,56.93,33.26,34.97
"2016-10-02 21:40:00",255791,0.077,340.2,17.6,99.9,0,0,872.1055,0,-1.658,3.099,260,18.74,18.09,0.3486378,0,49.84,56.93,33.26,34.97
"2016-10-02 21:50:00",255792,0.028,100.9,17.13,99.8,0,0,871.9918,0,-1.522,3.1,251,18.73,18.14,0,0,49.84,56.93,33.26,34.97
"2016-10-02 22:00:00",255793,0.002,45.37,17.1,100,0,0,871.9561,0,-1.364,3.098,256,18.73,18.15,0.1477921,0,49.84,56.93,33.26,34.97
"2016-10-02 22:10:00",255794,0.388,64.65,17.21,100,0.02751198,0,871.9792,0,-1.078,3.095,236,18.75,18.15,0.2576888,0.129,49.84,56.93,33.26,34.97
"2016-10-02 22:20:00",255795,0.748,132.7,17.13,100,0,0,872.0361,0,-0.951,3.094,230,18.75,18.15,0,0,49.84,56.93,33.26,34.97
"2016-10-02 22:30:00",255796,0.781,146.5,17.12,100,0,0,871.9581,0,-0.745,3.092,228,18.74,18.15,0.1364235,0,49.79,56.93,33.24,34.97
"2016-10-02 22:40:00",255797,0.807,148.7,17.1,100,0,0,871.9561,0,-1.157,3.096,224,18.69,18.15,0.140213,0,49.79,56.93,33.24,34.97
"2016-10-02 22:50:00",255798,0.545,150.3,17.12,99.9,0,0,871.9561,0,-1.054,3.095,244,18.67,18.15,0.05684311,0,49.79,56.93,33.24,34.97
"2016-10-02 23:00:00",255799,0.505,148,17.08,98.1,0,0,871.9012,0,-0.745,3.092,235,18.67,18.15,0.06821174,0,49.84,56.87,33.26,34.95
"2016-10-02 23:10:00",255800,0.446,149.5,17.15,94.9,0,0,871.8992,0,-1.102,3.095,229,18.67,18.14,0.2273725,0,49.79,56.87,33.24,34.95
"2016-10-02 23:20:00",255801,0.229,156.9,17.14,94.2,0,0,871.7032,0,-1.181,3.096,234,18.66,18.14,0.01136862,0,49.79,56.93,33.24,34.97
"2016-10-02 23:30:00",255802,0.523,137.4,16.93,96.8,0,0,871.598,0,-0.396,3.09,236,18.61,18.14,0.01515816,0,49.79,56.87,33.24,34.95
"2016-10-02 23:40:00",255803,0.569,143.6,17.04,94.6,0,0,871.2694,0,-0.793,3.092,236,18.58,18.17,0.1553712,0,49.79,56.87,33.24,34.95
"2016-10-02 23:50:00",255804,0.083,123.7,17.33,89.1,0,0,871.1957,0,-0.888,3.092,225,18.58,18.17,0.1970561,0,49.84,56.93,33.26,34.97
